Location: Mizzole
(45.4833°N, 11.0500°E)
Time: 06:06:25
(UTC+00:00)

Cosmos 2297 - Pass Details

Date: 21 October 2019
Orbit: 834 x 860 km, 71.0° (Epoch: 18 November)

Event Time Altitude Azimuth Distance (km) Brightness Sun altitude
Rises 18:41:37 0° 210° (SSW) 3,395 7.1 -25.3°
Reaches altitude 10° 18:44:03 10° 212° (SSW) 2,468 6.3 -25.7°
Maximum altitude 18:49:44 73° 297° (WNW) 892 3.8 -26.7°
Enters shadow 18:53:27 23° 19° (NNE) 1,758 5.3 -27.4°
